This demonstration page uses our WeatherBlox Daily Observations layout. Learn more.

Left ArrowRight Arrow

Hourly Observations for October 10, 2015

Temp ( °F °C ) Dew Point ( °F °C ) Humidity (%) Winds ( mph kmh ) Pressure ( in mb ) Visibility ( mi km ) Precip ( " mm )
12:51 am 00:51 Clear 68 20 53 11.7 59 59 ESE 6 9 30.09 1019 10 16 N/A
1:51 am 01:51 Clear 66 18.9 54 12.2 65 65 SSE 3 6 30.10 1019 10 16 N/A
2:51 am 02:51 Clear 64 17.8 54 12.2 70 70 SSE 7 11 30.10 1019 10 16 N/A
3:51 am 03:51 Clear 64 17.8 54 12.2 70 70 S 7 11 30.10 1019 10 16 N/A
4:51 am 04:51 Clear 64 17.8 54 12.2 70 70 ESE 7 11 30.10 1019 10 16 N/A
5:51 am 05:51 Clear 63 17.2 53 11.7 70 70 SE 7 11 30.12 1020 10 16 N/A
6:51 am 06:51 Sunny 65 18.3 51 10.6 61 61 SE 12 19 30.13 1020 10 16 N/A
7:51 am 07:51 Sunny 66 18.9 51 10.6 59 59 SE 9 15 30.14 1021 10 16 N/A
8:51 am 08:51 Sunny 70 21.1 52 11.1 53 53 SE 7 11 30.15 1021 10 16 N/A
9:51 am 09:51 Sunny 71 21.7 55 12.8 57 57 SSE 8 13 30.15 1021 10 16 N/A
10:51 am 10:51 Sunny 74 23.3 53 11.7 48 48 VRB 6 9 30.13 1020 10 16 N/A
11:51 am 11:51 Sunny 74 23.3 55 12.8 52 52 S 7 11 30.11 1020 10 16 N/A
12:51 pm 12:51 Sunny 79 26.1 55 12.8 44 44 VRB 5 7 30.05 1018 10 16 N/A
1:51 pm 13:51 Sunny 81 27.2 53 11.7 38 38 SE 7 11 30.01 1016 10 16 N/A
2:51 pm 14:51 Sunny 81 27.2 53 11.7 38 38 S 7 11 29.99 1016 10 16 N/A
3:51 pm 15:51 Sunny 82 27.8 53 11.7 37 37 S 3 6 29.98 1015 10 16 N/A
4:51 pm 16:51 Sunny 81 27.2 54 12.2 39 39 WSW 7 11 29.96 1015 10 16 N/A
5:51 pm 17:51 Sunny 79 26.1 54 12.2 42 42 N N/A 29.97 1015 10 16 N/A
6:51 pm 18:51 Clear 72 22.2 55 12.8 55 55 NNW 7 11 30.00 1016 10 16 N/A
7:51 pm 19:51 Clear 70 21.1 55 12.8 59 59 N 8 13 30.01 1016 10 16 N/A
8:51 pm 20:51 Clear 68 20 54 12.2 61 61 N N/A 30.02 1017 10 16 N/A
9:51 pm 21:51 Clear 66 18.9 55 12.8 68 68 E 6 9 30.03 1017 10 16 N/A
10:51 pm 22:51 Clear 65 18.3 55 12.8 70 70 E 3 6 30.01 1016 10 16 N/A
11:51 pm 23:51 Clear 63 17.2 56 13.3 78 78 N N/A 30.01 1016 10 16 N/A

Powered by AerisWeather